GW6636 Weather Reports


Display with metric or nautical units.
time (UTC)temp
F
wind
direction
speed
MPH
gust
MPH
rain 1hr
in
rain 24hr
in
rain mn
in
humidity
%
barometer
mb
20260504185226 80 237 1.0 2.0 0.00 0.00 0.00 48 1015.3
20260504184729 80 255 1.0 3.0 0.00 0.00 0.00 47 1015.3
20260504184227 80 230 2.0 2.0 0.00 0.00 0.00 48 1015.5
20260504183726 80 287 1.0 2.0 0.00 0.00 0.00 46 1015.5
20260504183227 80 224 1.0 3.0 0.00 0.00 0.00 48 1015.6
20260504182726 80 215 1.0 2.0 0.00 0.00 0.00 47 1015.6
20260504182227 80 233 2.0 2.0 0.00 0.00 0.00 49 1015.8
20260504181726 80 224 2.0 3.0 0.00 0.00 0.00 48 1015.9
20260504181227 80 241 1.0 2.0 0.00 0.00 0.00 47 1015.9
20260504180727 80 241 1.0 2.0 0.00 0.00 0.00 47 1016.0
20260504180227 80 246 1.0 3.0 0.00 0.00 0.00 47 1016.1
20260504175726 80 241 2.0 3.0 0.00 0.00 0.00 49 1016.1
20260504175226 80 249 0.0 2.0 0.00 0.00 0.00 50 1016.1
20260504174726 80 248 1.0 2.0 0.00 0.00 0.00 47 1016.2
20260504174226 80 228 1.0 2.0 0.00 0.00 0.00 47 1016.3
20260504173726 80 290 1.0 3.0 0.00 0.00 0.00 48 1016.3
20260504173226 80 241 2.0 4.0 0.00 0.00 0.00 47 1016.2
20260504172727 80 266 1.0 2.0 0.00 0.00 0.00 47 1016.2
20260504172226 80 261 1.0 3.0 0.00 0.00 0.00 47 1016.3
20260504171726 80 237 2.0 3.0 0.00 0.00 0.00 46 1016.4
20260504171226 80 239 1.0 2.0 0.00 0.00 0.00 48 1016.5
20260504170727 79 242 1.0 2.0 0.00 0.00 0.00 47 1016.6
20260504170227 80 245 2.0 4.0 0.00 0.00 0.00 47 1016.5
20260504160227 78 258 2.0 2.0 0.00 0.00 0.00 51 1017.3
20260504150726 75 252 2.0 4.0 0.00 0.00 0.00 55 1017.4
20260504150228 74 239 2.0 4.0 0.00 0.00 0.00 58 1017.5
20260504141226 70 269 1.0 2.0 0.00 0.00 0.00 66 1017.8
20260504140727 69 243 2.0 3.0 0.00 0.00 0.00 66 1017.7
20260504140227 69 270 2.0 4.0 0.00 0.00 0.00 67 1017.7
20260504130727 63 276 0.0 1.0 0.00 0.00 0.00 74 1017.3
20260504130227 62 242 1.0 2.0 0.00 0.00 0.00 76 1017.4
20260504120226 53 0 0.0 0.0 0.00 0.00 0.00 96 1017.4
20260504110226 53 0 0.0 0.0 0.00 0.00 0.00 95 1017.0
20260504100226 53 278 0.0 0.0 0.00 0.00 0.00 94 1016.9
20260504081726 54 0 0.0 0.0 0.00 0.00 0.00 92 1016.8
20260504081226 54 0 0.0 0.0 0.00 0.00 0.00 92 1016.9
20260504080726 54 0 0.0 0.0 0.00 0.00 0.00 92 1016.9
20260504080227 54 0 0.0 0.0 0.00 0.00 0.00 93 1016.9
20260504070226 56 0 0.0 0.0 0.00 0.00 0.00 91 1017.4
20260504060226 56 0 0.0 0.0 0.00 0.00 0.00 90 1017.9
20260504050726 58 15 0.0 0.0 0.00 0.00 0.00 89 1018.3
20260504050231 58 74 0.0 1.0 0.00 0.00 0.00 88 1018.3
20260504045727 58 322 0.0 1.0 0.00 0.00 0.00 88 1018.3
20260504045226 58 0 0.0 0.0 0.00 0.00 0.00 88 1018.3
20260504044726 58 330 0.0 0.0 0.00 0.00 0.00 88 1018.3
20260504044226 58 0 0.0 0.0 0.00 0.00 0.00 88 1018.3
20260504043728 58 128 0.0 0.0 0.00 0.00 0.00 88 1018.3
20260504043226 59 0 0.0 0.0 0.00 0.00 0.00 88 1018.3
20260504042726 59 0 0.0 0.0 0.00 0.00 0.00 88 1018.3
20260504042227 59 0 0.0 0.0 0.00 0.00 0.00 87 1018.2
20260504041729 59 301 0.0 1.0 0.00 0.00 0.00 87 1018.2
20260504041226 59 0 0.0 0.0 0.00 0.00 0.00 86 1018.3
20260504040726 59 0 0.0 0.0 0.00 0.00 0.00 85 1018.4
20260504040227 59 0 0.0 0.0 0.00 0.00 0.00 85 1018.4
20260504035726 60 289 0.0 1.0 0.00 0.00 0.00 85 1018.4
20260504035226 60 0 0.0 0.0 0.00 0.00 0.00 85 1018.4
20260504034726 60 0 0.0 0.0 0.00 0.00 0.00 84 1018.4
20260504034226 60 26 0.0 1.0 0.00 0.00 0.00 84 1018.4
20260504033726 60 0 0.0 0.0 0.00 0.00 0.00 84 1018.4
20260504033226 60 37 0.0 0.0 0.00 0.00 0.00 84 1018.4
20260504032726 60 190 0.0 0.0 0.00 0.00 0.00 84 1018.4
20260504031800 61 157 0.0 0.0 0.00 0.00 0.00 83 1018.4
20260504031228 61 0 0.0 0.0 0.00 0.00 0.00 83 1018.5
20260504030726 61 0 0.0 0.0 0.00 0.00 0.00 82 1018.4
20260504030226 61 119 0.0 0.0 0.00 0.00 0.00 81 1018.4
20260504025727 62 223 0.0 1.0 0.00 0.00 0.00 81 1018.5
20260504025226 62 326 0.0 0.0 0.00 0.00 0.00 81 1018.5
20260504024726 62 240 0.0 1.0 0.00 0.00 0.00 80 1018.5
20260504024226 62 0 0.0 0.0 0.00 0.00 0.00 80 1018.4
20260504023726 62 90 0.0 1.0 0.00 0.00 0.00 79 1018.5
20260504023226 62 85 0.0 1.0 0.00 0.00 0.00 78 1018.4
20260504022727 62 231 0.0 1.0 0.00 0.00 0.00 78 1018.3
20260504022227 63 103 0.0 1.0 0.00 0.00 0.00 79 1018.3
20260504021728 63 0 0.0 0.0 0.00 0.00 0.00 77 1018.3
20260504021226 63 0 0.0 0.0 0.00 0.00 0.00 77 1018.3
20260504020728 64 95 0.0 1.0 0.00 0.00 0.00 76 1018.1
20260504020226 64 76 0.0 1.0 0.00 0.00 0.00 74 1018.1
20260504015726 64 0 0.0 0.0 0.00 0.00 0.00 74 1018.0
20260504015226 64 75 0.0 1.0 0.00 0.00 0.00 73 1018.0
20260504014726 65 13 0.0 1.0 0.00 0.00 0.00 72 1018.0
20260504014226 65 76 0.0 1.0 0.00 0.00 0.00 71 1018.0
20260504013727 65 90 0.0 0.0 0.00 0.00 0.00 71 1018.0
20260504013226 66 0 0.0 0.0 0.00 0.00 0.00 69 1017.9
20260504012727 66 213 0.0 1.0 0.00 0.00 0.00 68 1017.9
20260504012226 66 111 0.0 1.0 0.00 0.00 0.00 67 1017.9
20260504011726 67 77 0.0 1.0 0.00 0.00 0.00 67 1017.9
20260504011226 67 259 1.0 2.0 0.00 0.00 0.00 66 1017.8
20260504010726 68 72 0.0 1.0 0.00 0.00 0.00 65 1017.7
20260504010227 68 0 0.0 0.0 0.00 0.00 0.00 65 1017.6
20260504005726 69 19 0.0 1.0 0.00 0.00 0.00 64 1017.6
20260504005226 70 58 0.0 1.0 0.00 0.00 0.00 63 1017.6
20260504004726 71 100 0.0 1.0 0.00 0.00 0.00 62 1017.6
20260504004226 71 19 0.0 1.0 0.00 0.00 0.00 58 1017.6
20260504003727 71 110 0.0 0.0 0.00 0.00 0.00 55 1017.5
20260504003226 72 0 0.0 0.0 0.00 0.00 0.00 56 1017.4
20260504002726 72 247 0.0 1.0 0.00 0.00 0.00 53 1017.4
20260504002226 72 271 0.0 1.0 0.00 0.00 0.00 53 1017.4
20260504001726 73 264 0.0 1.0 0.00 0.00 0.00 52 1017.4
20260504001227 73 0 0.0 0.0 0.00 0.00 0.00 53 1017.3
20260504000727 73 278 1.0 1.0 0.00 0.00 0.00 52 1017.3
20260504000226 73 264 0.0 1.0 0.00 0.00 0.00 52 1017.3
20260503235726 73 278 0.0 1.0 0.00 0.00 0.00 52 1017.3
20260503235226 73 293 0.0 1.0 0.00 0.00 0.00 52 1017.4
20260503234726 73 293 1.0 1.0 0.00 0.00 0.00 51 1017.4
20260503234226 74 266 1.0 2.0 0.00 0.00 0.00 50 1017.4
20260503233727 74 258 1.0 2.0 0.00 0.00 0.00 50 1017.4
20260503233227 74 282 0.0 1.0 0.00 0.00 0.00 50 1017.4
20260503232726 74 0 0.0 0.0 0.00 0.00 0.00 50 1017.4
20260503232226 74 277 0.0 1.0 0.00 0.00 0.00 49 1017.4
20260503231727 74 277 0.0 1.0 0.00 0.00 0.00 49 1017.5
20260503231226 75 247 0.0 1.0 0.00 0.00 0.00 49 1017.6
20260503230726 75 207 0.0 0.0 0.00 0.00 0.00 48 1017.6
20260503230226 75 256 1.0 2.0 0.00 0.00 0.00 48 1017.6
20260503225726 75 287 1.0 2.0 0.00 0.00 0.00 47 1017.6
20260503225226 76 280 0.0 1.0 0.00 0.00 0.00 46 1017.6
20260503224726 76 290 0.0 1.0 0.00 0.00 0.00 47 1017.6
20260503224226 75 257 2.0 2.0 0.00 0.00 0.00 46 1017.7
20260503223727 75 255 2.0 3.0 0.00 0.00 0.00 46 1017.7
20260503223226 75 295 0.0 2.0 0.00 0.00 0.00 46 1017.7
20260503222726 75 304 0.0 2.0 0.00 0.00 0.00 46 1017.7
20260503222226 75 290 0.0 2.0 0.00 0.00 0.00 47 1017.8
20260503221726 76 246 2.0 2.0 0.00 0.00 0.00 47 1017.7
20260503221226 76 238 1.0 2.0 0.00 0.00 0.00 45 1017.8
20260503220726 77 250 1.0 2.0 0.00 0.00 0.00 45 1017.9
20260503220226 77 264 1.0 2.0 0.00 0.00 0.00 45 1017.9
20260503215726 77 253 2.0 2.0 0.00 0.00 0.00 46 1018.0
20260503215226 76 309 1.0 2.0 0.00 0.00 0.00 46 1017.9
20260503214726 76 251 0.0 2.0 0.00 0.00 0.00 45 1018.0
20260503214226 77 251 2.0 2.0 0.00 0.00 0.00 44 1018.0
20260503213726 77 255 1.0 2.0 0.00 0.00 0.00 45 1018.1
20260503213226 77 257 2.0 3.0 0.00 0.00 0.00 45 1018.2
20260503212726 77 248 2.0 3.0 0.00 0.00 0.00 44 1018.2
20260503212226 77 291 1.0 2.0 0.00 0.00 0.00 43 1018.3
20260503211726 76 298 0.0 1.0 0.00 0.00 0.00 43 1018.3
20260503211226 76 278 1.0 2.0 0.00 0.00 0.00 44 1018.3
20260503210727 76 280 1.0 3.0 0.00 0.00 0.00 46 1018.4
20260503210226 76 342 0.0 2.0 0.00 0.00 0.00 44 1018.5
20260503205727 76 260 0.0 2.0 0.00 0.00 0.00 46 1018.6
20260503205226 76 267 1.0 2.0 0.00 0.00 0.00 45 1018.7
20260503204726 76 289 0.0 2.0 0.00 0.00 0.00 46 1018.8
20260503204226 76 286 1.0 2.0 0.00 0.00 0.00 46 1018.8
20260503203726 76 62 2.0 4.0 0.00 0.00 0.00 42 1018.9
20260503203226 76 177 0.0 1.0 0.00 0.00 0.00 43 1019.0
20260503202727 76 250 2.0 4.0 0.00 0.00 0.00 43 1019.1
20260503202226 76 249 2.0 3.0 0.00 0.00 0.00 45 1019.1
20260503201727 76 290 1.0 2.0 0.00 0.00 0.00 44 1019.2
20260503201226 76 263 1.0 2.0 0.00 0.00 0.00 45 1019.3
20260503200726 76 313 2.0 2.0 0.00 0.00 0.00 43 1019.4
20260503200227 76 307 1.0 2.0 0.00 0.00 0.00 44 1019.4
20260503195726 76 264 0.0 2.0 0.00 0.00 0.00 45 1019.5
20260503195226 76 351 1.0 2.0 0.00 0.00 0.00 43 1019.6
20260503194726 76 257 0.0 2.0 0.00 0.00 0.00 42 1019.7
20260503194226 76 356 1.0 3.0 0.00 0.00 0.00 43 1019.8
20260503193726 76 317 0.0 1.0 0.00 0.00 0.00 43 1019.8
20260503193226 76 261 0.0 2.0 0.00 0.00 0.00 42 1019.9
20260503192726 76 323 1.0 3.0 0.00 0.00 0.00 42 1020.0
20260503192226 76 283 0.0 1.0 0.00 0.00 0.00 41 1020.1
20260503191726 76 342 1.0 2.0 0.00 0.00 0.00 40 1020.0
20260503191226 76 288 0.0 2.0 0.00 0.00 0.00 44 1020.1
20260503190726 76 264 0.0 2.0 0.00 0.00 0.00 43 1020.2
20260503190227 76 258 2.0 3.0 0.00 0.00 0.00 42 1020.3
20260503185727 76 257 0.0 2.0 0.00 0.00 0.00 42 1020.3